Dewpoint
71 71 70 70 69 68 68 68 67 69 71 70 69 70 71 72 74 73 73 74 74 74 76 79 76 77 76 78 78 75 76 73 75 75 74 74 73 71 70 71 72 71
71 71 72 71 71 70 69 68 69 68 70 72 70 70 71 73 71 73 74 74 74 73 75 75 77 77 77 75 77 76 77 76 75 72 74 75 74 71 71 72 71 72
71 71 70 70 67 69 66 68 69 69 67 68 70 71 70 70 73 73 73 73 73 71 73 75 75 76 77 77 78 76 74 77 75 69 77 76 74 72 72 69 68 71
73 71 69 68 67 67 67 67 68 69 67 67 67 67 68 67 71 72 73 73 73 72 72 73 72 72 74 75 77 76 75 76 75 75 75 77 76 73 72 72 70 70
72 71 69 69 67 68 68 67 65 66 66 66 66 68 69 71 71 70 72 72 73 72 72 72 72 72 73 74 75 74 74 74 74 75 75 76 76 74 72 72 73 71
73 73 72 70 69 68 66 66 66 64 65 63 65 65 66 68 69 70 70 70 70 69 68 69 70 70 70 72 74 74 72 70 72 75 75 75 74 73 70 72 73 72
71 72 70 69 67 67 67 67 67 67 64 64 65 65 65 66 69 70 71 70 69 70 67 69 71 70 70 71 73 73 73 73 73 73 73 72 73 73 71 72 74 74
70 70 71 70 67 66 67 66 66 66 66 65 63 65 65 64 68 68 69 69 69 69 70 68 70 72 68 69 71 72 72 69 70 73 74 74 73 73 71 71 73 73
69 70 70 69 66 64 64 63 64 66 67 65 62 62 65 65 64 66 68 70 70 70 71 69 71 70 71 70 70 71 72 71 68 70 71 71 71 71 71 72 70 71
69 68 67 66 64 63 63 61 60 63 66 65 63 60 60 66 65 65 66 70 69 70 70 71 70 70 71 70 70 70 71 72 72 71 70 70 69 69 69 69 69 70
68 66 66 66 65 63 62 60 59 58 62 64 63 60 59 62 65 66 68 69 67 69 70 71 71 71 71 69 69 69 71 70 71 72 71 71 70 70 69 70 70 69
68 66 65 66 65 63 61 61 59 57 58 61 63 62 61 57 62 64 64 68 69 69 70 70 71 72 72 71 68 68 69 69 69 70 69 70 70 69 69 70 69 70
67 67 66 65 65 64 62 62 60 57 57 57 61 62 61 58 57 63 65 65 68 69 68 70 70 70 72 72 71 70 68 69 67 68 68 69 69 68 66 67 68 68
67 67 67 67 66 69 66 62 60 60 59 59 60 61 60 58 57 57 61 64 65 67 68 69 70 70 72 73 73 71 68 68 68 68 66 67 66 66 66 63 63 64
70 68 68 69 69 72 69 66 62 63 63 62 62 61 59 59 57 55 58 62 64 66 68 66 63 66 68 70 71 72 71 67 67 68 68 66 65 64 64 64 63 61
72 73 71 71 71 73 73 70 66 65 62 63 63 62 64 65 63 60 57 58 61 64 66 64 62 61 69 68 70 71 71 66 66 69 70 68 67 66 63 62 61 60
72 73 73 74 74 73 73 73 71 68 67 69 67 66 68 71 66 63 59 58 58 61 63 62 60 58 65 63 65 68 71 70 68 68 70 69 67 69 67 64 61 61
72 73 73 74 74 74 75 74 72 71 71 70 68 66 71 66 65 66 67 61 59 59 59 59 60 63 61 62 63 64 68 70 66 66 65 66 68 67 67 66 65 62
74 73 73 74 74 75 75 75 75 73 71 69 67 68 68 71 71 68 68 67 64 65 60 60 59 61 60 61 62 63 64 68 62 62 62 62 65 67 68 69 68 66
73 74 74 75 75 75 76 76 74 74 71 69 68 70 70 70 69 70 70 72 70 68 69 64 63 63 59 60 61 62 63 66 67 62 58 59 63 62 63 66 69 70
74 73 74 76 76 74 75 76 76 75 73 70 68 68 70 71 70 71 71 71 70 69 69 66 63 62 58 58 59 60 62 64 70 66 65 63 61 63 67 64 68 68
74 73 73 72 74 73 74 74 74 76 74 72 71 68 69 69 71 71 70 70 71 71 69 69 67 61 58 57 57 58 61 69 71 71 69 68 67 66 65 68 67 67
73 73 73 73 73 73 72 73 74 73 77 75 72 70 69 68 70 69 71 69 70 71 71 70 69 65 58 56 56 57 61 70 71 70 71 70 70 70 70 69 67 69
70 72 73 74 74 73 73 73 74 75 75 76 75 72 70 68 69 69 70 71 70 70 69 70 70 68 57 55 55 55 63 70 72 71 70 71 71 71 71 71 71 71
70 72 72 73 73 73 73 72 72 73 74 74 73 73 72 72 71 70 69 70 68 69 72 70 69 67 57 55 55 54 62 71 71 71 70 70 70 71 71 71 72 72
68 71 72 71 72 73 74 74 74 75 74 75 75 75 74 74 72 71 70 69 68 69 68 68 69 70 71 56 54 53 56 71 72 70 70 71 71 71 71 72 72 72